Current Conditions
Partly Cloudy
Conditions



Pressure
29.9 (inHG) - 1012.52 (mb)
Visibility

10.0 (mimiles) - 16.1 (km)
   Temperature
75  °F
24°C
52  °F
Dewpoint
44  %
 Humidity
   Wind Speed
9  mph
8  kts
14  km/h
4.0  m/s
   Wind Direction
 310°
North West
   Airport Data
KAVP
Location Wilkes-Barre / Scranton International 10 mi (16.09 km)
Metar :KAVP 302154Z 31008KT 10SM FEW055 SCT075 BKN100 24/11 A2990 RMK AO2 SLP117 T02390106
Sat 30th May 17:54 pm
   Raw Metar Info
Raw METAR is the most common format in the world for the transmission of observational weather data. It is highly standardized through the International Civil Aviation Organization (ICAO), which allows it to be understood throughout most of the world.
   API Info
Data Provided by
https://www.checkwx.com/weather/KAVP
   © Info
CSS/SVG/PHP scripts were developed by weather34.com for use in the weather34 template © 2015-2020

Guide Info provided by Metar-Wikipedia